Regional Weather Roundup
Issued by NWS

Home | Current Version | Previous Version | Graphics & Text | Print | Product List | Glossary On
Versions: 1 2 3 4 5 6 7 8 9 10 11 12 13 14 15 16 17 18 19 20 21 22 23 24 25 26 27 28 29 30 31 32 33 34 35 36 37 38 39 40 41 42 43 44 45 46 47 48 49 50
000
ASUS43 KFSD 261210
RWRSD

WEATHER ROUNDUP FOR SOUTH DAKOTA
NATIONAL WEATHER SERVICE SIOUX FALLS SD
700 AM CDT TUE MAY 26 2015

NOTE: "FAIR" INDICATES FEW OR NO CLOUDS BELOW 12,000 FEET WITH NO
SIGNIFICANT WEATHER AND/OR OBSTRUCTIONS TO VISIBILITY.


SDZ001>005-009-010-012>017-261300-
NORTHWEST AND NORTH CENTRAL SOUTH DAKOTA

CITY           SKY/WX    TMP DP  RH WIND       PRES   REMARKS
BUFFALO          N/A     46  44  93 CALM      29.91R
FAITH            N/A     48  47  96 W3        29.95R
MOBRIDGE       PTCLDY    53  53 100 NW5       29.91R
$$

SDZ012>016-024>037-041>051-057-063-072>074-261300-
SOUTHWEST AND SOUTH CENTRAL SOUTH DAKOTA

CITY           SKY/WX    TMP DP  RH WIND       PRES   REMARKS
RAPID CTY ARPT CLOUDY    52  51  97 E3        29.98R
PIERRE         MOCLDY    52  51  97 NW9       29.92R
CUSTER         FOG       45  44  97 CALM      30.02R VSB 1/2
ELLSWORTH AFB  CLOUDY    50  50 100 SE5       29.98R
PHILIP         MOCLDY    49  48  97 W6        29.96R
PINE RIDGE     CLOUDY    52  49  89 NE5       29.98R
SPEARFISH      CLOUDY    46  46 100 S6        29.99R
WINNER         PTSUNNY   52  49  89 NW8       29.91R FOG
$$

SDZ004>011-016>023-039-040-261300-
NORTHEAST SOUTH DAKOTA

CITY           SKY/WX    TMP DP  RH WIND       PRES   REMARKS
ABERDEEN       PTCLDY    49  47  93 W5        29.89S
WATERTOWN      CLOUDY    51  48  89 N10       29.85F
BROOKINGS      CLOUDY    54  48  82 N10       29.85S
SISSETON         N/A     50  48  93 NW8       29.86F
$$

SDZ017-020-022-023-036>040-048>070-261300-
SOUTHEAST SOUTH DAKOTA

CITY           SKY/WX    TMP DP  RH WIND       PRES   REMARKS
SIOUX FALLS    CLOUDY    55  52  89 N8        29.82R
HURON          CLOUDY    52  49  89 N12       29.86F
CHAMBERLAIN    MOCLDY    53  49  88 N9        29.89S
MITCHELL       CLOUDY    53  50  89 N9        29.86S
YANKTON        CLOUDY    55  52  88 N12       29.81R
$$

ABBREVIATIONS USED IN REMARKS
   TC - TEMPERATURE IN CELSIUS
  WCI - WIND CHILL INDEX
   HX - HEAT INDEX
  VSB - VISIBILITY




USA.gov is the U.S. government's official web portal to all federal, state and local government web resources and services.